TimeCDT,TemperatureF,Dew PointF,Humidity,Sea Level PressureIn,VisibilityMPH,Wind Direction,Wind SpeedMPH,Gust SpeedMPH,PrecipitationIn,Events,Conditions,WindDirDegrees,DateUTC
12:52 AM,81.0,66.9,62,29.85,10.0,SSE,12.7,-,N/A,,Clear,160,2013-10-04 05:52:00
1:52 AM,80.1,68.0,67,29.85,10.0,SSE,12.7,-,N/A,,Clear,160,2013-10-04 06:52:00
2:52 AM,79.0,66.9,66,29.85,10.0,SSE,15.0,-,N/A,,Clear,160,2013-10-04 07:52:00
3:52 AM,78.1,66.9,68,29.86,10.0,SSE,12.7,-,N/A,,Clear,160,2013-10-04 08:52:00
4:52 AM,77.0,66.0,69,29.86,10.0,SSE,10.4,-,N/A,,Clear,160,2013-10-04 09:52:00
5:52 AM,75.9,66.9,74,29.87,10.0,SSE,12.7,-,N/A,,Clear,160,2013-10-04 10:52:00
6:17 AM,75.2,66.2,73,29.92,10.0,SSE,12.7,-,N/A,,Clear,160,2013-10-04 11:17:00
6:52 AM,75.0,66.9,76,29.88,10.0,SSE,12.7,-,N/A,,Scattered Clouds,160,2013-10-04 11:52:00
7:06 AM,75.2,66.2,73,29.92,10.0,SSE,15.0,-,N/A,,Mostly Cloudy,160,2013-10-04 12:06:00
7:52 AM,75.9,66.9,74,29.89,10.0,South,12.7,-,N/A,,Scattered Clouds,170,2013-10-04 12:52:00
8:52 AM,78.1,66.9,68,29.90,10.0,South,11.5,-,N/A,,Mostly Cloudy,180,2013-10-04 13:52:00
9:52 AM,79.0,66.9,66,29.91,10.0,South,12.7,-,N/A,,Overcast,170,2013-10-04 14:52:00
10:35 AM,82.4,66.2,58,29.96,10.0,South,15.0,-,N/A,,Scattered Clouds,180,2013-10-04 15:35:00
10:52 AM,82.0,66.9,60,29.91,10.0,South,12.7,-,N/A,,Mostly Cloudy,170,2013-10-04 15:52:00
11:52 AM,84.9,64.9,51,29.90,10.0,South,16.1,21.9,N/A,,Mostly Cloudy,180,2013-10-04 16:52:00
12:52 PM,87.1,64.9,48,29.88,10.0,South,15.0,-,N/A,,Scattered Clouds,190,2013-10-04 17:52:00
1:52 PM,88.0,64.9,46,29.86,10.0,South,15.0,20.7,N/A,,Mostly Cloudy,170,2013-10-04 18:52:00
2:52 PM,89.1,64.0,43,29.84,10.0,South,9.2,-,N/A,,Mostly Cloudy,170,2013-10-04 19:52:00
3:52 PM,90.0,64.0,42,29.83,10.0,SSE,17.3,21.9,N/A,,Mostly Cloudy,150,2013-10-04 20:52:00
4:52 PM,90.0,64.0,42,29.82,10.0,SSE,18.4,24.2,N/A,,Mostly Cloudy,150,2013-10-04 21:52:00
5:52 PM,90.0,63.0,40,29.82,10.0,SSE,17.3,21.9,N/A,,Scattered Clouds,160,2013-10-04 22:52:00
6:52 PM,88.0,63.0,43,29.82,10.0,SSE,13.8,-,N/A,,Scattered Clouds,160,2013-10-04 23:52:00
7:52 PM,87.1,63.0,44,29.83,10.0,SSE,12.7,-,N/A,,Scattered Clouds,150,2013-10-05 00:52:00
8:52 PM,84.9,64.0,49,29.83,10.0,SE,11.5,-,N/A,,Partly Cloudy,140,2013-10-05 01:52:00
9:52 PM,84.0,64.9,53,29.84,10.0,SSE,11.5,20.7,N/A,,Partly Cloudy,150,2013-10-05 02:52:00
10:52 PM,82.9,64.9,54,29.86,10.0,South,12.7,-,N/A,,Partly Cloudy,170,2013-10-05 03:52:00
11:52 PM,82.9,64.9,54,29.86,10.0,SSE,11.5,20.7,N/A,,Clear,160,2013-10-05 04:52:00